User: anonymous   Login
Location: Cartignies
(50.0929°N, 3.8447°E)
Time: 12:44:56
(UTC+00:00)
Language:

Cosmos 304 Rocket - Orbit

View from above orbital plane
View from above orbital plane
View from above satellite
View from above satellite

Ground track
Ground track

The orbit is defined by the following mean orbital elements,

1 04139U          26069.11421417 +.00000000 +00000-0 +14048-3 0 00004
2 04139  74.0295 104.2233 0003582 107.5239 252.6322 14.66475862    07
Epoch (UTC): 10 March 2026 02:44:28
Eccentricity: 0.0003582
inclination: 74.0295°
perigee height: 670 km
apogee height: 675 km
right ascension of ascending node: 104.2233°
argument of perigee: 107.5239°
revolutions per day: 14.66475862
mean anomaly at epoch: 252.6322°

The dashed part of the orbit path shows where the satellite is in the earth's shadow,  

DLR